Location: Caltech
(34.1382°N, 118.1253°W)
Time: 15:14:07
(UTC-07:00)

Gbstr 26 Del rocket - Visible Passes

Search period start: 17 October 2017 00:00
Search period end: 27 October 2017 00:00
Orbit: 493 x 1265 km, 51.8° (Epoch: 16 October)

Date Brightness Start Highest point End Pass type
(mag) Time Alt. Az. Time Alt. Az. Time Alt. Az.
17 Oct 5.6 18:42:16 10° N 18:44:32 13° NNE 18:46:58 10° NE visible
17 Oct 4.8 20:27:43 10° NNW 20:31:29 33° N 20:31:29 33° N visible
18 Oct 5.5 18:37:45 10° NNW 18:40:23 14° NNE 18:43:16 10° NE visible
18 Oct 4.5 20:23:15 10° NW 20:27:25 40° N 20:27:25 40° N visible
19 Oct 5.3 18:33:13 10° NNW 18:36:12 15° NNE 18:39:32 10° ENE visible
19 Oct 4.1 20:18:46 10° NW 20:23:27 50° NNE 20:23:27 50° NNE visible
19 Oct 6.6 22:05:52 10° WNW 22:06:01 11° WNW 22:06:01 11° WNW visible
20 Oct 3.8 20:14:20 10° NW 20:19:35 64° NNE 20:19:35 64° NNE visible
20 Oct 6.6 22:01:48 10° WNW 22:02:10 12° WNW 22:02:10 12° WNW visible
21 Oct 3.6 20:09:54 10° NW 20:15:21 79° NE 20:15:52 73° E visible
21 Oct 6.6 21:57:54 10° W 21:58:27 12° W 21:58:27 12° W visible
22 Oct 3.7 20:05:31 10° NW 20:10:56 84° SW 20:12:20 56° SE visible
22 Oct 6.6 21:54:17 10° W 21:54:57 12° W 21:54:57 12° W visible
23 Oct 4.0 20:01:09 10° NW 20:06:30 67° SW 20:09:03 37° SSE visible
23 Oct 6.6 21:51:20 10° WSW 21:51:41 10° WSW 21:51:41 10° WSW visible
24 Oct 4.4 19:56:51 10° WNW 20:02:03 52° SW 20:06:04 22° SSE visible
25 Oct 4.9 19:52:37 10° WNW 19:57:37 41° SW 20:03:34 11° SSE visible
26 Oct 5.4 19:48:28 10° WNW 19:53:11 31° SW 19:58:49 10° S visible
